When you browse on this site, cookies collect data to enhance your experience and personalize the content and advertising you see.
Visit our Privacy Policy to learn more. By continuing to use the site, you agree to this use of cookies and data.
  • In Hungary
  • List of Countries
  • For 7 days
  • Water Temperature
  • Satellite Maps
  • Weather Map
  • News
  • Weather Widgets
  • user-avatar
    Login

    Hourly Weather Zenica

    Today, 22 April, Monday

    Time Temperature Precipitation Wind Pressure Humidity
    00:00 +6°C° 0 mm 2 mps 678 mmHg 87%
    01:00 +6°C° 0 mm 2 mps 678 mmHg 86%
    02:00 +5°C° 0 mm 2 mps 677 mmHg 89%
    03:00 +5°C° 0 mm 2 mps 677 mmHg 91%
    04:00 +5°C° 0 mm 2 mps 677 mmHg 94%
    05:00 +6°C° 0 mm 2 mps 677 mmHg 89%
    06:00 +7°C° 0 mm 2 mps 677 mmHg 84%
    07:00 +9°C° 0 mm 2 mps 678 mmHg 77%
    08:00 +12°C° 0 mm 2 mps 678 mmHg 66%
    09:00 +14°C° 0 mm 2 mps 678 mmHg 56%
    10:00 +16°C° 0 mm 2 mps 678 mmHg 45%
    11:00 +16°C° 0 mm 2 mps 678 mmHg 44%
    12:00 +17°C° 0 mm 3 mps 677 mmHg 43%
    13:00 +18°C° 0 mm 3 mps 677 mmHg 42%
    14:00 +17°C° 0 mm 3 mps 677 mmHg 46%
    15:00 +15°C° 0 mm 4 mps 676 mmHg 50%
    16:00 +14°C° 0 mm 4 mps 675 mmHg 54%
    17:00 +12°C° 0 mm 3 mps 675 mmHg 62%
    18:00 +11°C° 0 mm 3 mps 674 mmHg 69%
    19:00 +9°C° 0 mm 2 mps 673 mmHg 77%
    20:00 +8°C° 0 mm 2 mps 674 mmHg 78%
    21:00 +8°C° 0 mm 2 mps 674 mmHg 80%
    22:00 +7°C° 0 mm 2 mps 674 mmHg 81%
    23:00 +7°C° 0.9 mm 3 mps 674 mmHg 85%

    Tomorrow, 23 April, Tuesday

    Time Temperature Precipitation Wind Pressure Humidity
    00:00 +7°C° 0.9 mm 3 mps 673 mmHg 88%
    01:00 +7°C° 0.9 mm 3 mps 673 mmHg 91%
    02:00 +7°C° 0.1 mm 3 mps 672 mmHg 91%
    03:00 +5°C° 0.1 mm 3 mps 672 mmHg 90%
    04:00 +5°C° 0.1 mm 3 mps 672 mmHg 90%
    05:00 +7°C° 0.1 mm 3 mps 672 mmHg 87%
    06:00 +6°C° 0.1 mm 4 mps 672 mmHg 84%
    07:00 +7°C° 0.1 mm 4 mps 672 mmHg 81%
    08:00 +8°C° 0 mm 5 mps 672 mmHg 75%
    09:00 +10°C° 0 mm 6 mps 672 mmHg 70%
    10:00 +11°C° 0 mm 6 mps 672 mmHg 64%
    11:00 +11°C° 0 mm 6 mps 673 mmHg 65%
    12:00 +11°C° 0 mm 6 mps 673 mmHg 66%
    13:00 +13°C° 0 mm 6 mps 673 mmHg 67%
    14:00 +12°C° 0.1 mm 5 mps 672 mmHg 72%
    15:00 +11°C° 0.1 mm 4 mps 672 mmHg 77%
    16:00 +10°C° 0.1 mm 4 mps 672 mmHg 82%
    17:00 +10°C° 0.4 mm 3 mps 672 mmHg 84%
    18:00 +9°C° 0.4 mm 3 mps 672 mmHg 86%
    19:00 +9°C° 0.4 mm 3 mps 672 mmHg 88%
    20:00 +9°C° 0.2 mm 3 mps 673 mmHg 88%
    21:00 +9°C° 0.2 mm 3 mps 673 mmHg 89%
    22:00 +9°C° 0.2 mm 3 mps 674 mmHg 90%
    23:00 +9°C° 0.1 mm 3 mps 674 mmHg 91%

    Day after tomorrow, 24 April, Wednesday

    Time Temperature Precipitation Wind Pressure Humidity
    00:00 +9°C° 0.1 mm 3 mps 674 mmHg 91%
    01:00 +9°C° 0.1 mm 3 mps 675 mmHg 91%
    02:00 +9°C° 0 mm 3 mps 675 mmHg 91%
    03:00 +9°C° 0 mm 3 mps 675 mmHg 92%
    04:00 +9°C° 0 mm 3 mps 675 mmHg 92%
    05:00 +9°C° 0 mm 3 mps 676 mmHg 89%
    06:00 +10°C° 0 mm 3 mps 676 mmHg 85%
    07:00 +11°C° 0 mm 4 mps 677 mmHg 82%
    08:00 +12°C° 0 mm 4 mps 677 mmHg 76%
    09:00 +13°C° 0 mm 4 mps 678 mmHg 71%
    10:00 +14°C° 0 mm 4 mps 679 mmHg 65%
    11:00 +15°C° 0 mm 4 mps 679 mmHg 62%
    12:00 +17°C° 0 mm 4 mps 679 mmHg 58%
    13:00 +17°C° 0 mm 5 mps 680 mmHg 55%
    14:00 +17°C° 0 mm 5 mps 680 mmHg 56%
    15:00 +18°C° 0 mm 4 mps 679 mmHg 57%
    16:00 +18°C° 0 mm 4 mps 679 mmHg 57%
    17:00 +16°C° 0 mm 3 mps 679 mmHg 67%
    18:00 +12°C° 0 mm 3 mps 679 mmHg 76%
    19:00 +10°C° 0 mm 2 mps 678 mmHg 85%
    20:00 +10°C° 0 mm 2 mps 678 mmHg 86%
    21:00 +9°C° 0 mm 2 mps 679 mmHg 88%
    22:00 +8°C° 0 mm 2 mps 679 mmHg 90%
    23:00 +8°C° 0 mm 2 mps 679 mmHg 88%

    25 April, Thursday

    Time Temperature Precipitation Wind Pressure Humidity
    00:00 +8°C° 0 mm 2 mps 679 mmHg 87%
    01:00 +7°C° 0 mm 2 mps 679 mmHg 86%
    02:00 +7°C° 0 mm 2 mps 679 mmHg 87%
    03:00 +7°C° 0 mm 2 mps 679 mmHg 88%
    04:00 +7°C° 0 mm 2 mps 679 mmHg 88%
    05:00 +8°C° 0 mm 2 mps 679 mmHg 84%
    06:00 +10°C° 0 mm 2 mps 680 mmHg 79%
    07:00 +12°C° 0 mm 2 mps 680 mmHg 75%
    08:00 +14°C° 0 mm 2 mps 680 mmHg 66%
    09:00 +17°C° 0 mm 2 mps 681 mmHg 57%
    10:00 +19°C° 0 mm 2 mps 682 mmHg 48%
    11:00 +20°C° 0 mm 2 mps 681 mmHg 46%
    12:00 +20°C° 0 mm 2 mps 681 mmHg 44%
    13:00 +21°C° 0 mm 2 mps 681 mmHg 42%
    14:00 +21°C° 0 mm 2 mps 681 mmHg 44%
    15:00 +21°C° 0 mm 3 mps 681 mmHg 45%
    16:00 +20°C° 0 mm 3 mps 680 mmHg 47%
    17:00 +18°C° 0 mm 2 mps 680 mmHg 57%
    18:00 +16°C° 0 mm 2 mps 679 mmHg 66%
    19:00 +14°C° 0 mm 2 mps 679 mmHg 76%
    20:00 +13°C° 0 mm 2 mps 679 mmHg 78%
    21:00 +12°C° 0 mm 2 mps 679 mmHg 80%
    22:00 +10°C° 0 mm 2 mps 679 mmHg 83%
    23:00 +10°C° 0 mm 2 mps 679 mmHg 80%

    26 April, Friday

    Time Temperature Precipitation Wind Pressure Humidity
    00:00 +9°C° 0 mm 2 mps 678 mmHg 76%
    01:00 +9°C° 0 mm 2 mps 678 mmHg 73%
    02:00 +9°C° 0 mm 2 mps 678 mmHg 72%
    03:00 +9°C° 0 mm 2 mps 678 mmHg 71%
    04:00 +9°C° 0 mm 2 mps 678 mmHg 69%
    05:00 +10°C° 0 mm 2 mps 678 mmHg 67%
    06:00 +13°C° 0 mm 2 mps 678 mmHg 64%
    07:00 +14°C° 0 mm 2 mps 679 mmHg 61%
    08:00 +16°C° 0 mm 2 mps 679 mmHg 53%
    09:00 +19°C° 0 mm 2 mps 679 mmHg 45%
    10:00 +21°C° 0 mm 3 mps 680 mmHg 38%
    11:00 +22°C° 0 mm 3 mps 680 mmHg 37%
    12:00 +22°C° 0 mm 4 mps 679 mmHg 36%
    13:00 +23°C° 0 mm 4 mps 679 mmHg 35%
    14:00 +22°C° 0 mm 4 mps 679 mmHg 38%
    15:00 +21°C° 0 mm 4 mps 678 mmHg 40%
    16:00 +20°C° 0 mm 4 mps 677 mmHg 43%
    17:00 +18°C° 0 mm 3 mps 677 mmHg 52%
    18:00 +16°C° 0 mm 3 mps 676 mmHg 60%
    19:00 +14°C° 0 mm 2 mps 676 mmHg 69%
    20:00 +13°C° 0.1 mm 2 mps 676 mmHg 72%
    21:00 +12°C° 0.1 mm 2 mps 676 mmHg 74%
    22:00 +10°C° 0.1 mm 2 mps 676 mmHg 76%
    23:00 +10°C° 0 mm 2 mps 675 mmHg 79%

    27 April, Saturday

    Time Temperature Precipitation Wind Pressure Humidity
    00:00 +10°C° 0 mm 1 mps 675 mmHg 82%
    01:00 +9°C° 0 mm 1 mps 675 mmHg 84%
    02:00 +9°C° 0.2 mm 1 mps 675 mmHg 86%
    03:00 +9°C° 0.2 mm 1 mps 675 mmHg 88%
    04:00 +8°C° 0.2 mm 0 mps 675 mmHg 89%
    05:00 +10°C° 0.3 mm 1 mps 676 mmHg 88%
    06:00 +10°C° 0.3 mm 1 mps 676 mmHg 86%
    07:00 +11°C° 0.3 mm 1 mps 676 mmHg 85%
    08:00 +11°C° 1.8 mm 1 mps 677 mmHg 87%
    09:00 +10°C° 1.8 mm 2 mps 677 mmHg 88%
    10:00 +10°C° 1.8 mm 2 mps 677 mmHg 89%
    11:00 +8°C° 2.5 mm 2 mps 677 mmHg 91%
    12:00 +6°C° 2.5 mm 2 mps 676 mmHg 93%
    13:00 +4°C° 2.5 mm 3 mps 676 mmHg 95%
    14:00 +4°C° 0.6 mm 3 mps 676 mmHg 94%
    15:00 +5°C° 0.6 mm 2 mps 676 mmHg 92%
    16:00 +6°C° 0.6 mm 2 mps 676 mmHg 90%
    17:00 +6°C° 0.1 mm 2 mps 676 mmHg 92%
    18:00 +5°C° 0.1 mm 2 mps 677 mmHg 94%
    19:00 +5°C° 0.1 mm 2 mps 677 mmHg 95%
    20:00 +5°C° 1 mm 2 mps 677 mmHg 96%
    21:00 +6°C° 1 mm 1 mps 677 mmHg 96%
    22:00 +6°C° 1 mm 1 mps 677 mmHg 96%
    23:00 +6°C° 2.1 mm 1 mps 677 mmHg 96%
    Show more